CAPE
0 1 0 0 1 0 0 0 1 2 1 0 0 0 4 4 1 2 2 2 0 0 3 6 0 0 0 0 0 0 100 130 53 13 0 0 0 0
0 0 0 0 0 0 1 1 0 1 1 1 0 1 1 2 1 1 2 2 0 0 0 5 2 0 0 1 0 8 38 60 67 22 13 0 0 0
0 0 0 0 0 0 0 0 0 0 1 0 0 0 1 2 0 1 2 4 2 1 2 3 5 1 5 5 2 0 0 3 0 0 31 3 4 0
0 0 0 0 0 0 0 1 0 0 1 2 0 0 1 1 1 1 1 2 2 2 2 3 3 6 7 9 8 4 2 2 0 0 0 5 0 2
0 0 0 0 0 0 0 1 1 0 0 1 1 0 0 0 0 0 2 1 2 2 1 1 3 2 5 7 9 1 3 2 4 1 0 0 7 1
0 0 0 0 0 0 0 0 0 0 0 0 0 0 0 0 0 1 1 1 1 1 2 1 1 4 4 3 3 6 8 9 9 6 1 0 0 0
0 0 0 1 0 0 0 0 0 0 1 0 0 0 1 1 0 1 2 0 0 0 1 1 3 1 3 1 3 2 3 6 7 11 9 6 1 0
0 0 0 0 0 0 0 0 1 0 0 0 1 1 1 0 0 1 2 2 1 0 1 0 1 1 1 1 3 4 1 3 3 2 5 5 10 7
0 0 0 0 0 0 0 0 0 0 0 0 0 1 0 0 0 0 0 1 1 0 0 0 0 0 2 3 1 1 1 0 1 2 2 3 2 2
0 0 0 0 0 0 0 0 0 0 0 0 0 0 0 0 0 0 0 0 0 0 0 0 0 0 0 0 1 0 1 1 1 0 0 2 1 0
0 0 0 0 0 0 0 0 0 0 0 0 0 0 0 0 0 1 0 0 0 0 0 0 0 0 0 0 0 0 0 2 1 1 0 1 1 1
0 0 0 0 0 0 0 0 0 0 0 0 0 0 0 0 0 0 0 0 0 0 0 0 0 0 0 0 0 0 0 0 0 1 2 2 0 1
0 0 0 0 0 0 0 0 0 0 0 0 0 0 0 0 0 0 0 0 0 0 0 0 0 0 0 0 0 0 0 0 0 0 0 1 1 0
0 0 0 0 0 0 0 0 0 0 0 0 0 0 0 0 0 0 0 0 0 0 0 0 0 0 0 0 0 0 0 0 0 0 0 0 0 0
0 0 0 0 0 0 0 0 0 0 0 0 0 0 0 0 0 0 0 0 0 0 0 0 0 0 0 0 0 0 0 0 0 0 0 0 0 0
0 0 0 0 0 0 0 0 0 0 0 0 0 0 0 0 0 0 0 0 0 0 0 0 0 0 0 0 0 0 0 0 0 0 0 0 0 0
0 0 0 0 0 0 0 0 0 0 0 0 0 0 0 0 0 0 0 0 0 0 0 0 0 0 0 0 0 0 0 0 0 0 0 0 0 0
0 0 0 0 0 0 0 0 0 0 0 0 0 0 0 0 0 0 0 0 0 0 0 0 0 0 0 0 0 0 0 0 0 0 0 1 0 0
0 0 0 0 0 0 0 0 0 0 0 0 0 0 0 0 0 0 0 0 0 0 0 0 0 0 0 0 0 0 0 0 0 0 0 0 0 0
0 0 0 0 0 0 0 0 0 0 0 0 0 0 0 0 0 0 0 0 0 0 0 0 0 0 0 0 0 0 0 0 0 0 0 0 0 0
0 0 0 0 0 0 0 0 0 0 0 0 0 0 0 0 0 0 0 0 0 0 0 0 0 0 0 0 0 0 0 0 0 0 0 0 0 0
0 0 0 0 0 0 0 0 0 0 0 0 0 0 0 0 0 0 0 0 0 0 0 0 0 0 0 0 0 0 0 0 0 0 0 0 0 0
0 0 0 0 0 0 0 0 0 0 0 0 0 0 0 0 0 0 0 0 0 0 0 0 0 0 0 0 0 0 0 0 0 0 0 0 0 0
CIN
-0 -0 -0 -0 -0 -0 -0 -0 -0 -0 -0 -0 -0 -0 -0 -0 -0 -0 -0 -0 -0 -0 -0 -0 -0 -0 -0 -0 -0 -0 -9 -4 -30 -75 -0 -0 -0 -0
-0 -0 -0 -0 -0 -0 -0 -0 -0 -0 -0 -0 -0 -0 -0 -0 -0 -0 -0 -0 -0 -0 -0 -0 -0 -0 -0 -0 -23 -79 -28 -28 -40 -66 -85 -39 -0 -0
-0 -0 -0 -0 -0 -0 -0 -0 -0 -0 -0 -0 -0 -0 -0 -0 -0 -0 -0 -0 -0 -0 -0 -0 -0 -0 -0 -0 -0 -0 -0 -11 -0 -0 -51 -57 -90 -14
-0 -0 -0 -0 -0 -0 -0 -0 -0 -0 -0 -0 -0 -0 -0 -0 -0 -0 -0 -0 -0 -0 -0 -0 -0 -0 -0 -0 -0 -0 -0 -0 -0 -0 -3 -45 -2 -80
-0 -0 -0 -0 -0 -1 -0 -0 -0 -0 -0 -0 -0 -0 -0 -0 -0 -0 -0 -0 -0 -0 -0 -0 -0 -0 -0 -0 -0 -0 -0 -0 -0 -0 -0 -0 -17 -67
-0 -0 -0 -0 -0 -0 -0 -0 -0 -0 -0 -0 -0 -0 -0 -0 -0 -0 -0 -0 -0 -0 -0 -0 -0 -0 -0 -0 -0 -0 -0 -0 -0 -0 -0 -0 -0 -0
-0 -0 -0 -1 -0 -0 -0 -0 -0 -0 -0 -0 -0 -0 -0 -0 -0 -0 -0 -0 -0 -0 -0 -0 -0 -0 -0 -0 -0 -0 -0 -0 -0 -0 -0 -0 -0 -0
-0 -0 -0 -0 -0 -0 -0 -0 -0 -0 -0 -0 -0 -0 -0 -0 -0 -0 -0 -0 -0 -0 -0 -0 -0 -0 -0 -0 -0 -0 -0 -0 -0 -0 -0 -0 -0 -0
-0 -0 -0 -0 -0 -0 -0 -0 -0 -0 -0 -0 -0 -0 -0 -0 -0 -0 -0 -0 -0 -0 -0 -0 -0 -0 -0 -0 -0 -0 -0 -0 -0 -0 -0 -0 -0 -0
-0 -0 -0 -0 -0 -0 -0 -0 -0 -0 -0 -0 -0 -0 -0 -1 -0 -0 -0 -0 -0 -0 -0 -0 -0 -0 -0 -0 -0 -0 -0 -0 -0 -0 -0 -0 -0 -0
-0 -0 -0 -0 -0 -0 -0 -0 -0 -0 -0 -0 -0 -0 -0 -0 -0 -0 -0 -0 -0 -0 -0 -0 -0 -0 -0 -0 -0 -0 -0 -0 -0 -0 -0 -0 -0 -0
-0 -0 -0 -0 -0 -0 -0 -0 -0 -0 -0 -0 -0 -0 -0 -0 -0 -0 -0 -0 -0 -0 -0 -0 -0 -0 -0 -0 -0 -0 -0 -0 -0 -0 -0 -0 -0 -0
-0 -0 -0 -0 -1 -0 -0 -0 -0 -0 -0 -0 -0 -0 -0 -0 -0 -0 -0 -0 -0 -0 -0 -0 -0 -0 -0 -0 -0 -0 -0 -0 -0 -0 -0 -0 -0 -0
-0 -0 -0 -0 -0 -0 -0 -0 -0 -0 -0 -0 -0 -0 -0 -0 -0 -0 -0 -0 -0 -0 -0 -0 -0 -0 -0 -0 -0 -0 -0 -0 -0 -0 -0 -0 -0 -0
-0 -0 -0 -0 -0 -0 -0 -0 -0 -0 -0 -0 -0 -0 -0 -0 -0 -0 -0 -0 -0 -0 -0 -0 -0 -0 -0 -0 -0 -0 -0 -0 -0 -0 -0 -0 -0 -0
-0 -0 -0 -0 -0 -0 -0 -0 -0 -0 -0 -0 -0 -0 -0 -0 -0 -0 -0 -0 -0 -0 -0 -0 -0 -0 -0 -0 -0 -0 -0 -0 -0 -0 -0 -0 -0 -0
-0 -0 -0 -0 -0 -0 -0 -0 -0 -0 -0 -0 -0 -0 -0 -0 -0 -0 -0 -0 -0 -0 -0 -0 -0 -0 -0 -0 -0 -0 -0 -0 -0 -0 -0 -0 -0 -0
-0 -0 -0 -0 -0 -0 -0 -0 -0 -0 -0 -0 -0 -0 -0 -0 -0 -0 -0 -0 -0 -0 -0 -0 -0 -0 -0 -0 -0 -0 -0 -0 -0 -0 -0 -0 -0 -0
-0 -0 -0 -0 -0 -0 -0 -0 -0 -0 -0 -0 -0 -0 -0 -0 -0 -0 -0 -0 -0 -0 -0 -0 -0 -0 -0 -0 -0 -0 -0 -0 -0 -0 -0 -0 -0 -0
-0 -0 -0 -0 -0 -0 -0 -0 -0 -0 -0 -0 -0 -0 -0 -0 -0 -0 -0 -0 -0 -0 -0 -0 -0 -0 -0 -0 -0 -0 -0 -0 -0 -0 -0 -0 -0 -0
-0 -0 -0 -0 -0 -0 -0 -0 -0 -0 -0 -0 -0 -0 -0 -0 -0 -0 -0 -0 -0 -0 -0 -0 -0 -0 -0 -0 -0 -0 -0 -0 -0 -0 -0 -0 -0 -0
-0 -0 -0 -0 -0 -0 -0 -0 -0 -0 -0 -0 -0 -0 -0 -0 -0 -0 -0 -0 -0 -0 -0 -0 -0 -0 -0 -0 -0 -0 -0 -0 -0 -0 -0 -0 -0 -0
-0 -0 -0 -0 -0 -0 -0 -0 -0 -0 -0 -0 -0 -0 -0 -0 -0 -0 -0 -0 -0 -0 -0 -0 -0 -0 -0 -0 -0 -0 -0 -0 -0 -0 -0 -0 -0 -0
Wind_Speed
31 31 32 33 33 34 35 37 41 47 47 41 45 45 43 43 44 43 43 43 43 40 43 46 48 49 50 50 50 47 38 45 36 37 36 35 34 33
30 31 32 32 33 33 34 35 37 40 41 44 45 44 44 43 41 41 40 39 37 37 40 44 45 44 44 44 43 42 36 41 42 41 41 39 38 37
29 30 32 32 32 32 32 34 36 37 41 42 42 43 42 42 41 38 36 34 33 34 34 35 32 31 33 34 38 41 40 43 41 41 47 42 42 40
30 31 32 32 32 31 32 33 35 36 37 41 40 41 40 40 38 36 34 31 29 31 32 33 28 27 29 31 31 32 37 41 45 46 49 47 48 45
30 31 33 33 33 32 32 33 34 34 34 36 38 38 38 38 36 32 31 30 26 30 30 32 30 25 25 25 27 29 32 35 38 45 46 49 49 45
31 31 33 34 34 33 32 32 32 31 34 36 37 37 36 37 33 33 32 29 25 30 29 29 27 26 23 25 24 23 24 27 30 35 42 46 47 51
33 32 33 33 34 34 33 33 33 34 35 36 36 37 35 36 34 33 30 30 24 30 29 27 28 25 24 27 27 27 25 25 27 31 33 36 43 51
27 26 21 32 35 32 31 34 35 35 36 37 34 34 34 32 31 31 30 28 25 30 28 26 29 26 27 27 29 26 26 26 26 26 28 30 34 41
32 33 34 30 34 31 29 29 30 30 32 35 37 35 29 31 30 28 30 29 25 28 29 27 31 27 27 28 31 30 29 29 31 32 32 34 35 35
32 33 34 35 35 35 35 35 35 35 35 34 32 31 35 35 33 29 29 29 25 26 33 26 32 29 27 26 28 30 31 32 33 32 32 33 36 35
31 32 33 34 35 35 35 35 35 36 36 36 35 35 34 34 36 35 33 32 30 27 34 29 32 31 27 27 29 32 32 32 32 33 34 34 34 33
29 30 33 33 33 34 34 34 36 36 36 37 37 37 37 36 36 36 36 35 33 29 34 33 33 31 28 26 31 32 34 33 33 34 34 35 35 33
28 30 30 32 31 32 32 33 34 32 34 34 35 36 37 38 38 37 36 35 35 32 35 34 32 33 29 33 33 33 34 33 33 34 34 35 34 33
29 29 30 31 31 32 32 32 33 33 33 34 36 38 38 38 39 38 37 35 33 34 35 35 32 35 34 33 32 35 36 33 33 35 35 36 34 34
27 28 29 30 31 31 32 33 33 34 35 36 37 37 37 37 37 37 37 37 34 35 36 36 36 37 34 34 36 36 38 36 36 37 37 37 36 35
26 28 28 29 30 31 32 33 33 34 35 36 36 36 36 37 39 38 38 40 38 39 37 38 38 38 36 33 34 36 36 35 39 38 39 37 36 35
25 27 29 29 32 33 32 33 33 33 35 36 37 38 38 39 40 39 39 39 40 41 42 42 41 39 37 36 35 36 38 39 38 39 40 39 38 37
26 28 29 29 31 32 33 33 33 33 34 35 36 37 39 40 41 40 40 40 42 41 42 42 43 43 41 33 34 39 41 41 42 41 40 40 41 40
27 27 28 28 29 29 30 31 33 32 31 34 36 38 39 39 41 41 42 41 42 42 41 42 43 43 44 45 38 36 45 44 43 44 41 42 43 43
26 27 28 27 27 28 29 30 31 32 32 33 35 37 38 39 42 43 43 43 43 42 43 42 42 43 43 44 45 46 42 44 44 45 46 44 43 43
25 26 25 26 26 26 27 28 30 32 33 34 35 37 39 39 42 42 43 43 43 42 44 44 44 43 41 42 43 44 43 44 43 45 46 46 44 42
24 24 25 25 25 26 27 28 30 32 33 34 35 36 37 38 40 42 43 45 45 44 43 43 43 43 42 43 46 47 46 46 46 44 41 40 42 44
23 24 24 24 25 26 27 28 30 32 33 34 36 37 37 39 38 40 42 43 44 45 43 45 44 42 42 43 45 46 48 47 45 46 44 42 42 44
Wind_Direction
333 332 330 328 326 326 323 320 316 309 310 314 309 311 307 305 302 299 294 291 288 291 287 281 275 271 272 272 268 265 256 249 241 238 236 236 234 234
339 337 334 333 331 331 329 328 324 318 312 314 313 312 310 308 304 301 298 294 293 295 293 287 278 276 274 274 270 266 256 251 243 243 244 240 238 237
349 344 341 342 336 335 334 331 327 325 318 320 321 319 315 311 308 305 302 300 298 299 298 297 298 289 284 281 275 270 264 265 261 252 246 244 242 239
1 357 353 350 346 344 341 337 335 333 328 324 326 323 320 319 311 308 304 303 303 306 305 301 304 305 298 287 279 279 275 271 265 258 259 251 248 245
10 5 358 354 350 347 345 341 338 335 335 334 334 333 327 328 319 316 310 307 310 313 308 308 301 302 308 316 291 282 283 282 276 266 262 255 251 244
16 15 7 4 357 350 347 340 333 328 335 342 340 335 334 331 329 318 312 316 313 320 315 318 307 301 303 306 320 304 291 294 288 286 274 262 257 250
16 15 14 10 2 4 1 352 344 345 351 348 343 340 336 334 332 324 319 312 314 326 311 316 308 300 306 307 300 305 307 304 300 299 288 278 264 252
54 56 63 34 13 357 354 4 6 359 358 0 344 337 335 332 327 327 326 320 309 322 310 311 312 309 300 306 308 311 310 306 306 304 297 289 276 263
27 22 14 351 20 350 346 346 349 348 350 357 358 345 330 331 329 326 327 324 316 324 318 313 321 306 303 306 307 305 303 301 297 297 295 293 289 283
18 17 11 5 6 3 360 359 357 357 352 352 341 336 347 341 339 329 327 324 325 333 336 316 321 304 301 314 313 316 308 306 304 299 299 297 293 292
16 12 13 7 4 4 4 3 2 0 1 359 356 349 343 341 344 344 339 337 334 331 338 323 322 314 301 306 310 322 315 312 307 304 304 299 297 291
17 15 11 10 8 6 9 8 4 4 5 3 359 355 351 347 344 347 346 343 335 329 331 329 326 326 310 311 312 314 318 312 312 310 306 304 299 296
15 13 12 10 10 8 10 11 10 11 9 8 7 4 359 355 349 344 343 344 342 342 333 331 324 324 317 310 309 316 317 310 312 310 309 304 303 301
11 11 10 8 7 6 6 6 6 7 7 5 3 359 358 357 354 352 349 344 345 340 335 337 332 324 316 313 312 312 313 310 313 310 308 305 304 302
10 8 7 5 4 3 2 1 1 1 0 359 357 356 356 355 354 351 350 347 345 343 339 336 332 325 321 313 309 311 313 309 316 310 309 306 304 302
7 5 5 3 2 1 0 359 0 0 360 358 357 357 356 354 351 350 347 344 341 338 340 338 333 328 322 318 314 312 314 311 311 309 307 304 305 304
3 1 358 357 356 356 358 358 359 359 357 357 355 354 353 352 349 349 346 344 341 336 334 334 334 331 324 316 314 314 315 312 312 310 309 305 303 305
355 354 353 352 352 353 353 354 355 354 354 354 354 352 350 348 347 346 346 343 337 336 335 333 331 329 328 325 319 312 313 310 311 311 310 306 303 303
349 349 349 349 349 350 351 351 351 351 352 351 351 349 348 347 345 343 342 340 336 335 335 334 331 325 318 313 320 319 309 309 307 306 308 305 301 301
345 345 345 346 347 347 348 348 349 349 348 347 347 347 346 345 342 340 339 337 334 332 331 332 329 325 318 313 309 312 316 310 306 304 302 301 299 298
340 341 343 344 344 344 345 345 345 344 344 344 343 343 343 342 340 339 338 336 334 331 326 325 324 324 321 318 311 309 313 315 312 305 301 298 297 297
337 339 340 341 342 342 342 342 341 341 341 341 340 340 340 339 337 337 335 333 331 329 325 324 325 324 321 316 311 309 309 311 312 311 307 300 294 291
334 335 337 339 339 339 339 339 338 338 338 337 337 337 336 335 335 334 333 332 331 329 326 323 323 322 319 317 313 311 309 308 310 308 307 307 302 297